Showing default

TRANSIT 5E 3, 705

Orbit data source: Space-Track

TRANSIT 5E 3, 705 is a payload satellite owned by USN BuWeps (US) in LEO that was launched on Thu, 05 Dec 1963 UTC via a THOR ABLESTAR launch vehicle from the Air Force Western Test Range (AFWTR). Payload-class satellites include a variety of spacecraft equipped with specific instruments for various scientific and technological missions. These include communications satellites like Starlink; space stations such as the ISS; scientific satellites like the Hubble; Earth observation satellites from companies like Planet Labs, Umbra, and HawkEye 360; GPS; miniature CubeSats for education and research; and military/defense satellites.

Loading next visibility...
Identifier
705, 1963-049C
Orbit
LEO
Country
Flag of USUS
Related business
Manufacturer
APL
Mission
Spacecraft
Bus & Motor
TRANSIT 5, Unknown motor
Mass
52 kg wet, 52 kg dry
Launch date (UTC)
1963-12-05 (63 years ago)
Launch vehicle
THOR ABLESTAR
Launch site
Air Force Western Test Range (AFWTR)
Object type
Payload
Rocket body
Debris
Shape & HBR
OCT CYL + 4 PAN, 1.5 m
Radar Cross Section
Medium (>0.1 m² and <1 m²)

Expand to show TLE details & history
Last TLE update: 13 hours ago

TLE from 13 hours ago
0 TRANSIT 5E 3
1   705U 63049C   26236.26704970  .00000075  00000-0  10674-3 0  9991
2   705  89.9177  69.8609 0035564  60.7606 114.4372 13.47682150 81267
Epoch: 2026-08-24T06:24Z
TLE epoch observation values (Epoch: 2026-08-24T06:24:33.094Z)
Latitude
4.34291°
Longitude
-178.83442°
Altitude
1,094.345 km
Speed
7.3 km/s
True Right ascension
16h 39m 25s
True Declination
4° 19' 05"
Sunlit
Object was in daylight at epoch
Visualization orbit readout
Latitude
Unknown
Longitude
Unknown
Altitude
Unknown
Speed
Unknown
Apparent Right ascension
Unknown
Apparent Declination
Unknown
Sunlit
N/A
Visualization observer readout
Local Sidereal Time
10:26:20
Azimuth
Unknown
Elevation
Unknown
Doppler factor
Unknown
Orbital elements
Apogee altitude
1,104.368 km
Perigee altitude
1,051.335 km
Semi-major axis
7,455.989 km
Eccentricity
0.00356
Inclination
89.9177°
RAAN
69.8609°
Arg. of periapsis
60.7606°
True anomaly
114.80754°
Mean anomaly
114.4372°
Eccentric anomaly
114.62244°
Mean motion
3.37121 °/min
Orbital period
106.79 mins
BSTAR
0.00010674
Loading maneuver chart data...
Computing Atmospheric mass density...
Loading historical data...
Loading historical data...
Loading historical data...
Loading historical data...
Loading historical data...
Loading historical data...
Loading historical data...

Documentation

Showing up to 5 results
|